When you browse on this site, cookies collect data to enhance your experience and personalize the content and advertising you see.
Visit our Privacy Policy to learn more. By continuing to use the site, you agree to this use of cookies and data.
  • In Hungary
  • List of Countries
  • For 7 days
  • Water Temperature
  • Weather Map
  • News
  • Weather Widgets
  • user-avatar
    Login

    Hourly Weather Mangalia

    Today, 15 December, Sunday

    Time Temperature Precipitation Wind Pressure Humidity
    00:00 +10°C° 0.2 mm 5 mps 755 mmHg 84%
    01:00 +10°C° 0.2 mm 6 mps 755 mmHg 84%
    02:00 +9°C° 0.2 mm 7 mps 756 mmHg 85%
    03:00 +9°C° 1.3 mm 7 mps 756 mmHg 85%
    04:00 +9°C° 1.3 mm 7 mps 757 mmHg 85%
    05:00 +9°C° 1.3 mm 7 mps 758 mmHg 85%
    06:00 +8°C° 0 mm 7 mps 758 mmHg 86%
    07:00 +8°C° 0 mm 7 mps 759 mmHg 86%
    08:00 +6°C° 0 mm 7 mps 760 mmHg 87%
    09:00 +8°C° 0 mm 7 mps 761 mmHg 78%
    10:00 +9°C° 0 mm 7 mps 761 mmHg 68%
    11:00 +10°C° 0 mm 7 mps 762 mmHg 59%
    12:00 +11°C° 0 mm 6 mps 762 mmHg 58%
    13:00 +12°C° 0 mm 5 mps 762 mmHg 56%
    14:00 +12°C° 0 mm 4 mps 763 mmHg 54%
    15:00 +11°C° 0 mm 3 mps 763 mmHg 58%
    16:00 +11°C° 0 mm 3 mps 763 mmHg 62%
    17:00 +10°C° 0 mm 2 mps 764 mmHg 66%
    18:00 +9°C° 0 mm 2 mps 764 mmHg 67%
    19:00 +9°C° 0 mm 2 mps 765 mmHg 68%
    20:00 +8°C° 0 mm 2 mps 765 mmHg 69%
    21:00 +8°C° 0 mm 3 mps 765 mmHg 68%
    22:00 +8°C° 0 mm 3 mps 766 mmHg 67%
    23:00 +7°C° 0 mm 4 mps 766 mmHg 67%

    Tomorrow, 16 December, Monday

    Time Temperature Precipitation Wind Pressure Humidity
    00:00 +7°C° 0 mm 5 mps 766 mmHg 71%
    01:00 +7°C° 0 mm 5 mps 766 mmHg 75%
    02:00 +7°C° 0 mm 6 mps 766 mmHg 79%
    03:00 +7°C° 0 mm 6 mps 766 mmHg 81%
    04:00 +7°C° 0 mm 6 mps 766 mmHg 83%
    05:00 +8°C° 0 mm 6 mps 766 mmHg 85%
    06:00 +7°C° 0 mm 5 mps 766 mmHg 84%
    07:00 +7°C° 0 mm 5 mps 767 mmHg 82%
    08:00 +7°C° 0 mm 5 mps 767 mmHg 81%
    09:00 +9°C° 0 mm 5 mps 767 mmHg 76%
    10:00 +10°C° 0 mm 5 mps 767 mmHg 71%
    11:00 +13°C° 0 mm 5 mps 767 mmHg 66%
    12:00 +13°C° 0 mm 5 mps 767 mmHg 65%
    13:00 +14°C° 0 mm 5 mps 766 mmHg 64%
    14:00 +14°C° 0 mm 5 mps 766 mmHg 62%
    15:00 +13°C° 0 mm 4 mps 766 mmHg 69%
    16:00 +12°C° 0 mm 4 mps 766 mmHg 75%
    17:00 +11°C° 0 mm 4 mps 766 mmHg 82%
    18:00 +10°C° 0 mm 4 mps 766 mmHg 84%
    19:00 +10°C° 0 mm 3 mps 766 mmHg 85%
    20:00 +10°C° 0 mm 3 mps 766 mmHg 87%
    21:00 +9°C° 0 mm 3 mps 766 mmHg 87%
    22:00 +9°C° 0 mm 3 mps 766 mmHg 87%
    23:00 +9°C° 0 mm 2 mps 766 mmHg 87%

    Day after tomorrow, 17 December, Tuesday

    Time Temperature Precipitation Wind Pressure Humidity
    00:00 +9°C° 0 mm 2 mps 766 mmHg 85%
    01:00 +8°C° 0 mm 2 mps 766 mmHg 83%
    02:00 +8°C° 0 mm 2 mps 766 mmHg 81%
    03:00 +8°C° 0 mm 2 mps 766 mmHg 79%
    04:00 +8°C° 0 mm 2 mps 766 mmHg 78%
    05:00 +8°C° 0 mm 1 mps 765 mmHg 76%
    06:00 +8°C° 0 mm 1 mps 766 mmHg 75%
    07:00 +8°C° 0 mm 1 mps 766 mmHg 75%
    08:00 +8°C° 0 mm 1 mps 766 mmHg 74%
    09:00 +10°C° 0 mm 1 mps 766 mmHg 69%
    10:00 +11°C° 0 mm 1 mps 766 mmHg 63%
    11:00 +13°C° 0 mm 1 mps 766 mmHg 58%
    12:00 +14°C° 0 mm 1 mps 766 mmHg 57%
    13:00 +14°C° 0 mm 2 mps 766 mmHg 56%
    14:00 +15°C° 0 mm 2 mps 765 mmHg 55%
    15:00 +14°C° 0 mm 2 mps 765 mmHg 62%
    16:00 +13°C° 0 mm 2 mps 765 mmHg 69%
    17:00 +11°C° 0 mm 3 mps 765 mmHg 75%
    18:00 +10°C° 0 mm 3 mps 765 mmHg 76%
    19:00 +10°C° 0 mm 3 mps 765 mmHg 76%
    20:00 +10°C° 0 mm 3 mps 766 mmHg 77%
    21:00 +10°C° 0 mm 3 mps 766 mmHg 76%
    22:00 +9°C° 0 mm 3 mps 766 mmHg 76%
    23:00 +9°C° 0 mm 3 mps 766 mmHg 75%

    18 December, Wednesday

    Time Temperature Precipitation Wind Pressure Humidity
    00:00 +9°C° 0 mm 3 mps 766 mmHg 75%
    01:00 +9°C° 0 mm 3 mps 765 mmHg 75%
    02:00 +9°C° 0 mm 3 mps 765 mmHg 74%
    03:00 +9°C° 0 mm 3 mps 765 mmHg 75%
    04:00 +9°C° 0 mm 3 mps 765 mmHg 75%
    05:00 +8°C° 0 mm 3 mps 765 mmHg 75%
    06:00 +8°C° 0 mm 3 mps 765 mmHg 76%
    07:00 +8°C° 0 mm 3 mps 765 mmHg 77%
    08:00 +8°C° 0 mm 3 mps 765 mmHg 78%
    09:00 +10°C° 0 mm 3 mps 765 mmHg 73%
    10:00 +11°C° 0 mm 3 mps 766 mmHg 68%
    11:00 +13°C° 0 mm 4 mps 766 mmHg 62%
    12:00 +14°C° 0 mm 4 mps 765 mmHg 61%
    13:00 +15°C° 0 mm 4 mps 765 mmHg 59%
    14:00 +15°C° 0 mm 4 mps 765 mmHg 57%
    15:00 +14°C° 0 mm 4 mps 765 mmHg 63%
    16:00 +13°C° 0 mm 4 mps 765 mmHg 69%
    17:00 +11°C° 0 mm 4 mps 765 mmHg 74%
    18:00 +11°C° 0 mm 4 mps 765 mmHg 77%
    19:00 +11°C° 0 mm 4 mps 765 mmHg 79%
    20:00 +10°C° 0 mm 4 mps 765 mmHg 81%
    21:00 +10°C° 0 mm 4 mps 765 mmHg 82%
    22:00 +9°C° 0 mm 5 mps 765 mmHg 83%
    23:00 +9°C° 0 mm 5 mps 765 mmHg 85%

    19 December, Thursday

    Time Temperature Precipitation Wind Pressure Humidity
    00:00 +9°C° 0 mm 5 mps 764 mmHg 85%
    01:00 +8°C° 0 mm 5 mps 764 mmHg 85%
    02:00 +8°C° 0 mm 5 mps 764 mmHg 85%
    03:00 +8°C° 0 mm 5 mps 764 mmHg 85%
    04:00 +8°C° 0 mm 5 mps 764 mmHg 85%
    05:00 +8°C° 0 mm 4 mps 764 mmHg 85%
    06:00 +8°C° 0 mm 5 mps 764 mmHg 86%
    07:00 +8°C° 0 mm 5 mps 764 mmHg 87%
    08:00 +7°C° 0 mm 5 mps 764 mmHg 88%
    09:00 +9°C° 0 mm 5 mps 764 mmHg 82%
    10:00 +12°C° 0 mm 5 mps 764 mmHg 76%
    11:00 +13°C° 0 mm 5 mps 764 mmHg 71%
    12:00 +14°C° 0 mm 6 mps 763 mmHg 68%
    13:00 +15°C° 0 mm 6 mps 762 mmHg 66%
    14:00 +15°C° 0 mm 6 mps 762 mmHg 64%
    15:00 +14°C° 0 mm 6 mps 761 mmHg 68%
    16:00 +13°C° 0 mm 5 mps 761 mmHg 72%
    17:00 +12°C° 0 mm 5 mps 761 mmHg 77%
    18:00 +11°C° 0 mm 6 mps 761 mmHg 79%
    19:00 +11°C° 0 mm 6 mps 761 mmHg 80%
    20:00 +11°C° 0 mm 6 mps 761 mmHg 82%
    21:00 +11°C° 0 mm 6 mps 761 mmHg 83%
    22:00 +11°C° 0 mm 6 mps 760 mmHg 83%
    23:00 +11°C° 0 mm 7 mps 760 mmHg 84%

    20 December, Friday

    Time Temperature Precipitation Wind Pressure Humidity
    00:00 +11°C° 0 mm 6 mps 760 mmHg 84%
    01:00 +11°C° 0 mm 6 mps 759 mmHg 85%
    02:00 +11°C° 0 mm 6 mps 759 mmHg 85%
    03:00 +11°C° 0 mm 6 mps 759 mmHg 85%
    04:00 +11°C° 0 mm 7 mps 759 mmHg 85%
    05:00 +11°C° 0 mm 7 mps 758 mmHg 86%
    06:00 +11°C° 0 mm 7 mps 758 mmHg 85%
    07:00 +11°C° 0 mm 7 mps 758 mmHg 85%
    08:00 +11°C° 0 mm 7 mps 758 mmHg 85%
    09:00 +12°C° 0 mm 7 mps 758 mmHg 76%
    10:00 +14°C° 0 mm 6 mps 758 mmHg 68%
    11:00 +15°C° 0 mm 5 mps 758 mmHg 59%
    12:00 +16°C° 0 mm 5 mps 758 mmHg 56%
    13:00 +16°C° 0 mm 5 mps 758 mmHg 53%
    14:00 +17°C° 0 mm 5 mps 757 mmHg 49%
    15:00 +15°C° 0 mm 5 mps 757 mmHg 54%
    16:00 +14°C° 0 mm 4 mps 757 mmHg 59%
    17:00 +13°C° 0 mm 4 mps 757 mmHg 63%
    18:00 +13°C° 0 mm 4 mps 757 mmHg 65%
    19:00 +12°C° 0 mm 4 mps 757 mmHg 67%
    20:00 +12°C° 0 mm 4 mps 757 mmHg 69%
    21:00 +12°C° 0 mm 3 mps 757 mmHg 69%
    22:00 +12°C° 0 mm 3 mps 757 mmHg 69%
    23:00 +11°C° 0 mm 3 mps 757 mmHg 69%
    Show more